OSCAR 7 (AO-7) 1 07530U 74089B 21108.79936324 -.00000024 00000-0 13390-3 0 9994 2 07530 101.8494 83.3772 0012437 135.3758 287.5979 12.53648267124258 PHASE 3B (AO-10) 1 14129U 83058B 21098.56622972 .00000269 00000-0 00000-0 0 9997 2 14129 25.9307 166.1482 6035815 324.7245 7.4353 2.05867583256467 UOSAT 2 (UO-11) 1 14781U 84021B 21108.89486981 .00000163 00000-0 26025-4 0 9990 2 14781 97.5934 111.6696 0006894 279.3199 80.7235 14.83272043977100 LUSAT (LO-19) 1 20442U 90005G 21108.78751096 .00000031 00000-0 27765-4 0 9996 2 20442 98.7356 63.7297 0011421 342.1611 17.9170 14.32982820632288 EYESAT A (AO-27) 1 22825U 93061C 21108.76911181 -.00000036 00000-0 42125-5 0 9993 2 22825 98.9218 124.9087 0008008 201.6539 158.4305 14.30111693437459 ITAMSAT (IO-26) 1 22826U 93061D 21108.75364383 -.00000006 00000-0 15626-4 0 9991 2 22826 98.9160 124.8071 0008761 189.1774 170.9249 14.30449952437699 RADIO ROSTO (RS-15) 1 23439U 94085A 21108.92588001 -.00000037 00000-0 15882-3 0 9990 2 23439 64.8131 112.2334 0159431 345.8255 13.8224 11.27570978 83623 JAS-2 (FO-29) 1 24278U 96046B 21108.85033590 -.00000036 00000-0 21507-5 0 9993 2 24278 98.5707 184.7108 0349425 304.1762 52.6706 13.53102893218181 TECHSAT 1B (GO-32) 1 25397U 98043D 21108.59863863 .00000001 00000-0 19999-4 0 9992 2 25397 98.7660 54.3316 0000273 207.4899 152.6265 14.23705775182972 ISS (ZARYA) 1 25544U 98067A 21109.21251552 .00001445 00000-0 34486-4 0 9999 2 25544 51.6452 274.4230 0002486 246.0034 286.0425 15.48900816279452 PCSAT (NO-44) 1 26931U 01043C 21108.61389726 -.00000003 00000-0 30703-4 0 9994 2 26931 67.0510 74.8685 0007211 264.5550 95.4728 14.30614220 20671 SAUDISAT 1C (SO-50) 1 27607U 02058C 21108.86991010 .00000044 00000-0 26698-4 0 9996 2 27607 64.5546 160.5455 0034140 43.5989 316.7802 14.75735266985768 CUTE-1 (CO-55) 1 27844U 03031E 21108.75083117 .00000067 00000-0 49601-4 0 9993 2 27844 98.6824 117.8649 0008727 249.2196 110.8047 14.22301611923496 CUBESAT XI-IV (CO-57) 1 27848U 03031J 21108.93738271 .00000056 00000-0 45045-4 0 9991 2 27848 98.6880 118.6157 0008558 263.4570 96.5633 14.21879551923359 MOZHAYETS 4 (RS-22) 1 27939U 03042A 21108.90459688 .00000121 00000-0 30319-4 0 9994 2 27939 98.1305 246.4482 0014267 107.0189 253.2577 14.66969535938795 CUBESAT XI-V 1 28895U 05043F 21108.82375444 .00000210 00000-0 49071-4 0 9991 2 28895 98.0487 243.3968 0017548 42.3317 317.9236 14.63894320825286 CUTE-1.7+APD II (CO-65) 1 32785U 08021C 21108.64638679 .00000380 00000-0 46312-4 0 9998 2 32785 97.6072 89.8273 0012436 194.9634 165.1217 14.88684188703275 DELFI-C3 (DO-64) 1 32789U 08021G 21108.86340150 .00002898 00000-0 18814-3 0 9991 2 32789 97.3819 146.5155 0011324 356.1657 3.9483 15.08758985707848 SEEDS II (CO-66) 1 32791U 08021J 21108.44787092 .00000710 00000-0 76467-4 0 9998 2 32791 97.5684 95.6061 0013621 159.7903 200.3858 14.91350159703832 YUBILEINY (RS-30) 1 32953U 08025A 21108.91182344 .00000028 00000-0 12906-3 0 9992 2 32953 82.4984 87.9578 0020597 104.9642 255.3717 12.43101405585584 KKS-1 (KISEKI) 1 33499U 09002H 21108.86898035 .00000154 00000-0 30529-4 0 9991 2 33499 98.2776 337.4868 0008045 225.9534 134.1013 14.75641939657623 SWISSCUBE 1 35932U 09051B 21108.79519284 .00000181 00000-0 51859-4 0 9996 2 35932 98.6070 306.9269 0006346 271.5180 88.5290 14.56515152614279 BEESAT-1 1 35933U 09051C 21108.83191879 .00000142 00000-0 42989-4 0 9999 2 35933 98.6039 308.8018 0004590 287.9920 72.0776 14.56575514614354 ITUPSAT1 1 35935U 09051E 21108.80061240 .00000130 00000-0 40866-4 0 9995 2 35935 98.6143 308.9194 0006916 287.5135 72.5306 14.55710054614090 XIWANG-1 (HOPE-1) 1 36122U 09072B 21108.79028388 -.00000037 00000-0 15656-4 0 9997 2 36122 100.1279 91.9409 0006848 237.3719 122.6722 13.16360020545048 JUGNU 1 37839U 11058B 21108.69603294 .00000345 00000-0 41884-4 0 9997 2 37839 19.9605 231.6111 0018849 153.1820 236.7640 14.12710736492002 SRMSAT 1 37841U 11058D 21108.85812921 .00000339 00000-0 41428-4 0 9994 2 37841 19.9727 301.2757 0011871 359.2297 28.5990 14.10691286491432 M-CUBED & EXP-1 PRIME 1 37855U 11061F 21108.95658805 .00002265 00000-0 11621-3 0 9994 2 37855 101.7162 1.5195 0167221 247.6504 110.6912 15.07466320517216 STRAND-1 1 39090U 13009E 21108.79757110 .00000034 00000-0 26719-4 0 9999 2 39090 98.4332 312.3928 0010381 95.4547 264.7823 14.35175568426488 SOMP 1 39134U 13015E 21108.86672029 .00003307 00000-0 15147-3 0 9996 2 39134 64.8656 6.2080 0004888 267.2370 92.8199 15.22335754442520 BEESAT-3 1 39135U 13015F 21108.87293696 .00002564 00000-0 13064-3 0 9997 2 39135 64.8688 34.4025 0004374 196.6221 163.4763 15.19180190441583 BEESAT-2 1 39136U 13015G 21108.58241194 .00002587 00000-0 13307-3 0 9997 2 39136 64.8774 41.4893 0028532 249.9192 109.8863 15.18554994441404 ZACUBE-1 (TSHEPISOSAT) 1 39417U 13066B 21108.94683002 .00000480 00000-0 66038-4 0 9993 2 39417 97.5902 96.3682 0058622 357.8357 2.2594 14.81478431400268 GOMX-1 1 39430U 13066Q 21108.82238335 .00000331 00000-0 69150-4 0 9993 2 39430 97.8127 35.3186 0149719 303.1980 55.4946 14.59582521394344 CUBEBUG-2 (LO-74) 1 39440U 13066AA 21108.66914450 .00000443 00000-0 67715-4 0 9994 2 39440 97.6712 80.9836 0081370 69.8386 291.1554 14.76206139397608 FUNCUBE-1 (AO-73) 1 39444U 13066AE 21108.76473902 .00000563 00000-0 74776-4 0 9999 2 39444 97.5813 98.5479 0057422 349.1263 10.8705 14.82377612398595 UWE-3 1 39446U 13066AG 21108.87953882 .00000491 00000-0 70903-4 0 9991 2 39446 97.6327 88.1758 0070661 34.6326 325.9457 14.78744048397701 SPROUT 1 39770U 14029E 21108.77794027 .00000925 00000-0 10597-3 0 9998 2 39770 97.9089 220.1306 0009979 50.7296 309.4783 14.88317366374462 UNISAT-6 1 40012U 14033C 21108.84286554 .00000297 00000-0 50870-4 0 9994 2 40012 97.6817 314.3808 0059621 93.0517 267.7517 14.74282184367419 DUCHIFAT-1 1 40021U 14033M 21108.81929862 .00000693 00000-0 75457-4 0 9995 2 40021 97.9685 48.3964 0013087 7.9156 352.2266 14.91271542371399 QB50P1 1 40025U 14033R 21108.62782913 .00000578 00000-0 66823-4 0 9991 2 40025 97.9306 39.1678 0012969 21.7627 338.4138 14.89392497370515 NUDT-PHONESAT 1 40900U 15049B 21108.79901852 .00004338 00000-0 17127-3 0 9994 2 40900 97.4235 123.3149 0011930 359.4024 175.3737 15.25998733309725 ZDPS 2A 1 40901U 15049C 21108.86297634 .00002191 00000-0 10684-3 0 9995 2 40901 97.4641 116.7253 0014315 35.7275 85.2392 15.19292854308922 ZDPS 2B 1 40902U 15049D 21108.89890942 .00002157 00000-0 10518-3 0 9998 2 40902 97.4672 114.0742 0014171 33.3444 29.9632 15.19319855308904 XW-2A 1 40903U 15049E 21108.85718993 .00004080 00000-0 88663-4 0 9994 2 40903 97.2423 163.5144 0010922 226.6820 251.3840 15.44867070313595 KAITUO 1A 1 40904U 15049F 21108.94573547 .00000658 00000-0 37556-4 0 9991 2 40904 97.4871 111.5696 0015984 48.2802 7.6707 15.16098746308527 2015-049G 1 40905U 15049G 21108.93493044 .00000705 00000-0 41315-4 0 9995 2 40905 97.4998 108.6625 0016927 47.6428 8.1216 15.14919381308326 XW-2C 1 40906U 15049H 21108.79384319 .00001262 00000-0 67820-4 0 9992 2 40906 97.4869 111.8977 0015878 39.5412 86.1948 15.16623532308529 XW-2D 1 40907U 15049J 21108.91660043 .00001502 00000-0 79416-4 0 9999 2 40907 97.4852 111.7925 0015157 36.3911 3.0335 15.16929765308573 LILACSAT-2 1 40908U 15049K 21108.82276683 .00000532 00000-0 32502-4 0 9990 2 40908 97.5049 109.6307 0017305 49.9537 71.2648 15.14368433308205 XW-2F 1 40910U 15049M 21108.83361376 .00001848 00000-0 91792-4 0 9995 2 40910 97.4733 114.7201 0015092 25.1400 96.8259 15.18839878308675 XW-2B 1 40911U 15049N 21108.91628566 .00001459 00000-0 77411-4 0 9992 2 40911 97.4854 112.4811 0015108 37.4978 2.6848 15.16847765308464 KAITUO 1B 1 40912U 15049P 21108.79869591 .00002221 00000-0 10202-3 0 9996 2 40912 97.4470 119.0423 0014471 359.0405 125.1078 15.21353154309121 TIANWANG 1A (TW-1A) 1 40928U 15051D 21108.90926105 .00006363 00000-0 13550-3 0 9994 2 40928 97.0815 135.2501 0010720 140.0987 340.2627 15.45222131312490 LAPAN-A2 1 40931U 15052B 21107.62233101 .00002189 00000-0 21551-3 0 9996 2 40931 5.9998 326.2558 0015034 258.4724 101.3715 14.76674742300295 E-ST@R-II 1 41459U 16025D 21108.62771458 .00002820 00000-0 14185-3 0 9993 2 41459 98.1320 241.3064 0159833 264.0604 94.2432 15.07738432273409 AAUSAT 4 1 41460U 16025E 21108.64398914 .00004430 00000-0 21074-3 0 9993 2 41460 98.1315 244.9049 0147367 248.9103 109.6331 15.10642972273687 NUSAT-1 (FRESCO) 1 41557U 16033B 21108.86478757 .00002679 00000-0 96973-4 0 9991 2 41557 97.3913 203.1541 0014764 86.7528 52.5494 15.29197370272420 BEESAT-4 1 41619U 16040W 21108.89570906 .00003845 00000-0 15557-3 0 9994 2 41619 97.2754 166.6454 0011002 172.6408 187.4994 15.25236727255937 CAS-2T & KS-1Q 1 41847U 16066G 21108.92225942 .00000187 00000-0 37913-4 0 9993 2 41847 98.6074 167.7832 0365991 38.2358 324.4187 14.38175664233323 NAYIF-1 (EO-88) 1 42017U 17008BX 21108.90372169 .00004033 00000-0 15091-3 0 9998 2 42017 97.3196 177.5675 0004881 335.0481 25.0522 15.27870052232161 ZHUHAI-1 02 (CAS-4B) 1 42759U 17034B 21108.84952973 .00000552 00000-0 46579-4 0 9998 2 42759 43.0161 148.7522 0008098 158.1565 10.6644 15.10157985212131 ZHUHAI-1 01 (CAS-4A) 1 42761U 17034D 21108.84381914 .00000551 00000-0 46439-4 0 9996 2 42761 43.0164 147.8783 0008847 160.1290 8.7173 15.10239286212136 MAX VALIER SAT 1 42778U 17036P 21108.92972637 .00002324 00000-0 10032-3 0 9992 2 42778 97.2615 159.4766 0012716 34.5733 325.6329 15.23423462212221 RADFXSAT (FOX-1B) 1 43017U 17073E 21108.81821683 .00000923 00000-0 75728-4 0 9999 2 43017 97.7108 15.1642 0256307 134.7011 227.5394 14.79434406184308 FOX-1D (AO-92) 1 43137U 18004AC 21108.62893882 .00002552 00000-0 10488-3 0 9997 2 43137 97.4094 183.2697 0010383 67.4983 292.7353 15.25051931181543 DIWATA-2B 1 43678U 18084H 21108.82220120 -.00000234 00000-0 -17440-4 0 9999 2 43678 97.9138 233.8265 0008456 245.9039 114.1312 14.91728247134546 ES'HAIL 2 1 43700U 18090A 21108.87081420 .00000147 00000-0 00000-0 0 9996 2 43700 0.0310 100.7015 0002461 318.7333 127.0412 1.00273495 8775 FOX-1CLIFF (AO-95) 1 43770U 18099N 21108.89304442 .00000557 00000-0 55724-4 0 9998 2 43770 97.6689 180.3857 0012960 255.0899 104.8887 14.95266362129558 ITASAT 1 1 43786U 18099AE 21108.75719132 .00000639 00000-0 62657-4 0 9990 2 43786 97.6708 180.8892 0013618 248.0265 111.9510 14.95568249129563 JY1SAT (JO-97) 1 43803U 18099AX 21108.66376998 .00000734 00000-0 70799-4 0 9991 2 43803 97.6663 180.5570 0013749 247.8991 112.0771 14.95797540129559 UWE-4 1 43880U 18111E 21108.68753921 .00001125 00000-0 10325-3 0 9991 2 43880 97.6901 17.4311 0010840 309.4692 50.5570 14.96803764126144 PSAT2 (NO-104) 1 44354U 19036R 21108.47063116 .00021119 00000-0 28431-3 0 9994 2 44354 28.5277 166.5273 0331080 346.4234 12.7631 15.12045072 99885 BRICSAT2 (NO-103) 1 44355U 19036S 21108.38127908 .00041898 00000-0 47854-3 0 9991 2 44355 28.5233 131.2273 0276716 44.0013 318.2265 15.26242211100235 JAISAT-1 1 44419U 19038F 21108.81264190 .00001683 00000-0 97004-4 0 9998 2 44419 97.5830 73.7636 0021718 153.8320 206.4013 15.13589905 98772 DUCHIFAT-3 1 44854U 19089C 21108.66231437 .00000615 00000-0 55607-4 0 9995 2 44854 36.9645 94.2077 0008244 7.5385 352.5495 14.99423647 74121 RS-44 & BREEZE-KM R/B 1 44909U 19096E 21108.81720310 .00000004 00000-0 -22766-4 0 9997 2 44909 82.5205 152.4410 0216499 232.3400 125.7889 12.79709579 61230 ORBITAL FACTORY 2 (OF-2) 1 45113U 19071C 21108.85756710 .00005544 00000-0 16972-3 0 9999 2 45113 51.6430 326.3836 0012729 79.4377 280.8039 15.35333173 68013 HUSKYSAT-1 (HO-107) 1 45119U 19071J 21108.80548509 .00005616 00000-0 17150-3 0 9994 2 45119 51.6426 326.0330 0012037 76.2611 283.9711 15.35390887 68003 BY70-2 1 45857U 20042B 21108.89127398 .00001269 00000-0 18786-3 0 9997 2 45857 97.9853 185.2601 0012287 53.9395 306.2957 14.76856421 42753 SALSAT 1 46495U 20068K 21108.89355215 .00000981 00000-0 76493-4 0 9995 2 46495 97.6893 46.7567 0015481 274.9292 85.0165 15.03418246 30384 BY70-3 1 46839U 20079N 21108.81543851 .00003634 00000-0 11531-3 0 9995 2 46839 97.2428 183.8605 0008828 67.6063 71.5679 15.33271458 25066 RADFXSAT-2 (AO-109) 1 47311U 21002C 21108.49364864 .00001139 00000-0 61980-4 0 9999 2 47311 60.6839 155.6220 0027090 11.9317 348.2405 15.21451890 13748 UVSQ-SAT 1 47438U 21006AB 21108.86237621 .00001362 00000-0 80766-4 0 9995 2 47438 97.4928 171.1396 0011372 308.3271 51.6937 15.13002607 13047